Location: Killam
(52.7910°N, 111.8608°W)
Time: 09:08:39
(UTC+00:00)

Vanguard 2 Rocket - All Passes

Search period start: 16 February 2026 00:00
Search period end: 26 February 2026 00:00
Orbit: 553 x 3286 km, 32.9° (Epoch: 15 February)

Date Brightness Start Highest point End Pass type
(mag) Time Alt. Az. Time Alt. Az. Time Alt. Az.
16 Feb - 01:28:23 10° WSW 01:32:19 13° SW 01:35:35 10° S visible
16 Feb - 17:44:06 10° SSE 17:48:49 11° SE 17:53:14 10° SE daylight
16 Feb - 19:49:42 10° SSW 20:02:18 24° SSE 20:11:48 10° ESE daylight
16 Feb - 22:03:25 10° SW 22:15:42 28° S 22:24:00 10° SE daylight
17 Feb - 00:19:56 10° WSW 00:27:51 20° SSW 00:33:34 10° SSE daylight
17 Feb - 18:44:26 10° SSW 18:56:23 21° SSE 19:06:07 10° ESE daylight
17 Feb - 20:56:26 10° SW 21:10:06 30° S 21:19:40 10° ESE daylight
17 Feb - 23:12:09 10° WSW 23:23:00 26° SSW 23:30:23 10° SE daylight
18 Feb - 01:31:28 10° SW 01:34:13 11° SW 01:36:39 10° SSW visible
18 Feb - 17:40:29 10° S 17:50:28 17° SE 17:59:14 10° ESE daylight
18 Feb - 19:49:54 10° SW 20:04:12 29° SSE 20:14:51 10° ESE daylight
18 Feb - 22:04:36 10° WSW 22:17:44 30° S 22:26:37 10° SE daylight
19 Feb - 00:21:55 10° WSW 00:29:47 19° SSW 00:35:37 10° S daylight
19 Feb - 16:39:36 10° SSE 16:44:39 11° SE 16:49:30 10° ESE daylight
19 Feb - 18:44:05 10° SSW 18:58:07 26° SSE 19:09:25 10° ESE daylight
19 Feb - 20:57:20 10° SW 21:12:03 32° S 21:22:21 10° ESE daylight
19 Feb - 23:13:45 10° WSW 23:24:57 26° SSW 23:32:42 10° SSE daylight
20 Feb - 17:39:17 10° S 17:52:02 22° SSE 18:03:08 10° ESE daylight
20 Feb - 19:50:32 10° SW 20:06:02 32° S 20:17:36 10° ESE daylight
20 Feb - 22:05:57 10° WSW 22:19:40 31° SSW 22:29:03 10° SE daylight
21 Feb - 00:24:09 10° WSW 00:31:34 17° SW 00:37:17 10° S daylight
21 Feb - 16:36:00 10° S 16:46:03 16° SE 16:55:29 10° ESE daylight
21 Feb - 18:44:22 10° SSW 18:59:49 30° SSE 19:12:18 10° ESE daylight
21 Feb - 20:58:29 10° WSW 21:13:55 34° S 21:24:51 10° SE daylight
21 Feb - 23:15:30 10° WSW 23:26:46 24° SSW 23:34:45 10° SSE daylight
22 Feb - 15:37:03 10° SE 15:40:20 11° SE 15:43:36 10° ESE daylight
22 Feb - 17:39:02 10° SSW 17:53:32 26° SSE 18:06:17 10° ESE daylight
22 Feb - 19:51:28 10° SW 20:07:48 35° S 20:20:09 10° ESE daylight
22 Feb - 22:07:27 10° WSW 22:21:28 31° SSW 22:31:17 10° SE daylight
23 Feb - 00:26:47 10° WSW 00:33:12 15° SW 00:38:23 10° SSW daylight
23 Feb - 16:34:50 10° S 16:47:23 21° SE 16:59:18 10° ESE daylight
23 Feb - 18:45:04 10° SW 19:01:27 34° SSE 19:14:54 10° ESE daylight
23 Feb - 20:59:49 10° WSW 21:15:41 35° S 21:27:10 10° SE daylight
23 Feb - 23:17:27 10° WSW 23:28:26 22° SW 23:36:31 10° S daylight
24 Feb - 15:32:28 10° SSE 15:41:31 15° SE 15:50:35 10° ESE daylight
24 Feb - 17:39:25 10° SSW 17:55:01 31° SSE 18:09:01 10° ESE daylight
24 Feb - 19:52:40 10° WSW 20:09:30 37° S 20:22:31 10° ESE daylight
24 Feb - 22:09:06 10° WSW 22:23:09 29° SSW 22:33:17 10° SSE daylight
25 Feb - 00:30:20 10° WSW 00:34:40 12° SW 00:38:27 10° SSW daylight
25 Feb - 16:34:42 10° SSW 16:48:42 26° SSE 17:02:20 10° ESE daylight
25 Feb - 18:46:06 10° SW 19:03:02 37° S 19:17:17 10° ESE daylight
25 Feb - 21:01:19 10° WSW 21:17:22 35° SSW 21:29:19 10° SE daylight
25 Feb - 23:19:39 10° WSW 23:29:55 20° SW 23:37:51 10° S daylight
